Change the Weather History Date:

Saturday, January 11, 2014

  Actual Average Record
Temperature  
Mean Temperature 58 °F -  
Max Temperature 65 °F 65 °F 77 °F (2003)
Min Temperature 50 °F 48 °F 46 °F (2000)
Degree Days  
Heating Degree Days 8    
Growing Degree Days 8 (Base 50)    
Moisture  
Dew Point 45 °F    
Average Humidity 64    
Maximum Humidity 87    
Minimum Humidity 34    
Precipitation  
Precipitation 0.00 in 0.01 in - ()
Sea Level Pressure  
Sea Level Pressure 30.26 in    
Wind  
Wind Speed 2 mph ()    
Max Wind Speed 8 mph    
Max Gust Speed -    
Visibility 3.5 miles    
Events      
Averages and records for this station are not official NWS values.
T = Trace of Precipitation, MM = Missing Value Source: Averaged Metar Reports

Daily Weather History Graph

Daily Weather History Graph

Search for Another Location

Airport or City:

Trip Planner

Search our weather history database for the weather conditions in past years. The results will help you decide how hot, cold, wet, or windy it might be!

Date:

Astronomy

Jan. 11, 2014 Rise Set
Actual Time 6:51 AM EET 5:13 PM EET
Civil Twilight 6:25 AM EET 5:39 PM EET
Nautical Twilight 5:55 AM EET 6:08 PM EET
Astronomical Twilight 5:27 AM EET 6:37 PM EET
Moon 1:39 PM EET (1/11) 2:42 AM EET (1/11)
Length of Visible Light 11h 13m
Length of Day
10h 21m
Waxing Gibbous, 81% of the Moon is Illuminated
Jan 11
Waxing Gibbous
Jan 16
Full
Jan 24
Last Quarter
Jan 30
New
Feb 6
First Quarter

Hourly Weather History & Observations

Time (EET) Temp. Dew Point Humidity Pressure Visibility Wind Dir Wind Speed Gust Speed Precip Events Conditions
12:00 AM 57.2 °F 48.2 °F 72% 30.21 in 3.7 mi NW 3.5 mph - N/A   Unknown
12:30 AM 55.4 °F 48.2 °F 77% 30.21 in - North - - N/A   Unknown
1:00 AM 55.4 °F 50.0 °F 82% 30.21 in 3.7 mi WSW 3.5 mph - N/A   Unknown
1:30 AM 55.4 °F 48.2 °F 77% 30.21 in 2.5 mi West 3.5 mph - N/A   Mist
2:00 AM 55 °F 49 °F 74% 30.23 in 1 mi WSW 3.5 mph - -   Mist
2:00 AM 55.4 °F 48.2 °F 77% 30.21 in 1.2 mi WSW 3.5 mph - N/A   Mist
2:30 AM 53.6 °F 46.4 °F 77% 30.21 in 1.2 mi SW 3.5 mph - N/A   Mist
3:00 AM 53.6 °F 48.2 °F 82% 30.21 in 1.2 mi Calm Calm - N/A   Mist
3:30 AM 51.8 °F 46.4 °F 82% 30.21 in 1.2 mi Calm Calm - N/A   Mist
4:00 AM 51.8 °F 46.4 °F 82% 30.21 in 0.9 mi Calm Calm - N/A   Mist
4:30 AM 51.8 °F 46.4 °F 82% 30.21 in 0.9 mi Calm Calm - N/A   Mist
5:00 AM 50 °F 46 °F 81% 30.25 in 1 mi Calm Calm - -   Mist
5:00 AM 50.0 °F 46.4 °F 87% 30.21 in 1.2 mi Calm Calm - N/A   Mist
5:30 AM 51.8 °F 46.4 °F 82% 30.24 in 1.2 mi Calm Calm - N/A   Mist
6:00 AM 50.0 °F 46.4 °F 87% 30.24 in 1.2 mi Calm Calm - N/A   Mist
6:30 AM 50.0 °F 46.4 °F 87% 30.24 in 1.2 mi Calm Calm - N/A   Mist
7:00 AM 50.0 °F 44.6 °F 82% 30.27 in 1.2 mi Calm Calm - N/A   Mist
7:30 AM 50.0 °F 44.6 °F 82% 30.27 in 1.2 mi Calm Calm - N/A   Mist
8:00 AM 50.0 °F 46.4 °F 87% 30.30 in 1.2 mi Calm Calm - N/A   Mist
8:30 AM 50.0 °F 46.4 °F 87% 30.30 in 1.2 mi Calm Calm - N/A   Mist
9:00 AM 55.4 °F 48.2 °F 77% 30.30 in 1.2 mi Calm Calm - N/A   Mist
9:30 AM 57.2 °F 48.2 °F 72% 30.30 in 1.2 mi Calm Calm - N/A   Mist
10:00 AM 60.8 °F 48.2 °F 63% 30.30 in 1.9 mi Calm Calm - N/A   Haze
10:30 AM 62.6 °F 48.2 °F 59% 30.30 in 1.9 mi Calm Calm - N/A   Haze
11:00 AM 62.6 °F 44.6 °F 52% 30.30 in 1.9 mi NW 2.3 mph - N/A   Haze
11:30 AM 64.4 °F 44.6 °F 49% 30.27 in 3.7 mi Calm Calm - N/A   Unknown
12:00 PM 64.4 °F 44.6 °F 49% 30.27 in - NNW 5.8 mph - N/A   Clear
12:30 PM 64.4 °F 44.6 °F 49% 30.24 in 6.2 mi NNW 4.6 mph - N/A   Partly Cloudy
1:00 PM 64.4 °F 44.6 °F 49% 30.24 in 6.2 mi NNW 3.5 mph - N/A   Scattered Clouds
1:30 PM 64.4 °F 44.6 °F 49% 30.24 in 6.2 mi NW 5.8 mph - N/A   Partly Cloudy
2:00 PM 66 °F 44 °F 34% 30.26 in 6 mi NW 3.5 mph - -   Scattered Clouds
2:00 PM 66.2 °F 44.6 °F 46% 30.24 in 6.2 mi NW 3.5 mph - N/A   Partly Cloudy
2:30 PM 66.2 °F 42.8 °F 43% 30.24 in 6.2 mi NNW 6.9 mph - N/A   Partly Cloudy
3:00 PM 66.2 °F 42.8 °F 43% 30.24 in 6.2 mi WNW 6.9 mph - N/A   Scattered Clouds
3:30 PM 66.2 °F 41.0 °F 40% 30.24 in 6.2 mi NW 4.6 mph - N/A   Scattered Clouds
4:00 PM 66.2 °F 42.8 °F 43% 30.27 in 6.2 mi NW 8.1 mph - N/A   Scattered Clouds
4:30 PM 64.4 °F 42.8 °F 45% 30.27 in 6.2 mi WNW 6.9 mph - N/A   Scattered Clouds
5:00 PM 64.4 °F 42.8 °F 45% 30.27 in 6.2 mi NW 6.9 mph - N/A   Scattered Clouds
5:30 PM 64.4 °F 44.6 °F 49% 30.27 in 6.2 mi NW 5.8 mph - N/A   Scattered Clouds
6:00 PM 62.6 °F 44.6 °F 52% 30.27 in 6.2 mi NNW 3.5 mph - N/A   Scattered Clouds
6:30 PM 60.8 °F 44.6 °F 55% 30.27 in 6.2 mi NE 5.8 mph - N/A   Scattered Clouds
7:00 PM 60.8 °F 44.6 °F 55% 30.30 in 6.2 mi North 4.6 mph - N/A   Scattered Clouds
7:30 PM 60.8 °F 44.6 °F 55% 30.30 in 6.2 mi North 2.3 mph - N/A   Scattered Clouds
8:00 PM 61 °F 44 °F 43% 30.32 in 4 mi Calm Calm - -   Haze
8:00 PM 60.8 °F 44.6 °F 55% 30.30 in 3.7 mi Calm Calm - N/A   Unknown
8:30 PM 59.0 °F 42.8 °F 55% 30.30 in 3.7 mi Calm Calm - N/A   Unknown
9:00 PM 59.0 °F 44.6 °F 59% 30.30 in 3.7 mi Calm Calm - N/A   Unknown
9:30 PM 57.2 °F 42.8 °F 59% 30.30 in 3.7 mi Calm Calm - N/A   Unknown
10:00 PM 57.2 °F 42.8 °F 59% 30.30 in 3.7 mi Calm Calm - N/A   Unknown
10:30 PM 57.2 °F 42.8 °F 59% 30.30 in 3.7 mi Calm Calm - N/A   Unknown
11:00 PM 55.4 °F 42.8 °F 63% 30.30 in 3.7 mi Calm Calm - N/A   Unknown
11:30 PM 57.2 °F 42.8 °F 59% 30.30 in 3.7 mi Calm Calm - N/A   Unknown